PAJNPAGS

Guest
Details From PAJN - Juneau Intl
To PAGS - GUSTAVUS
Flight Number -
Tags generated
Created
Modified
Stats Distance 36 nm / 66 km
Max Altitude 1,300 ft / 396 m
Waypoints 3
Social Downloads 1
Likes 0
Share VATSIM

Download

Looking for another format? Having issues loading an existing format? Contact us
Advertisement - Login to hide

Notes

Basic altitude profile: - Ascent Rate: 2500ft/min - Ascent Speed: 250kts - Cruise Altitude: 35000ft - Cruise Speed: 420kts - Descent Rate: 1500ft/min - Descent Speed: 250kts Options: - Use NATs: yes - Use PACOTS: yes - Use low airways: yes - Use high airways: yes

Route

PAJN CGL PAGS

ID Type Via Altitude Latitude Longitude Leg Dist Tot Dist Heading (true) Name
O PAJN APT - 0 ft / 0 m 58.35496˚ -134.57628˚ - 0 nm - Juneau Intl
CGL NDB - 1,300 ft / 396 m 58.35933˚ -134.69944˚ 3 nm 3 nm 274° / 274° COGHLAN ISLAND NDB
O PAGS APT - 0 ft / 0 m 58.42469˚ -135.70896˚ 32 nm 35 nm 277° / 277° GUSTAVUS

Altitude Profile

Advertisement - Login to hide

PAJN

Details ICAO PAJN (JNU)
Name Juneau Intl
Region USA (Alaska)
Timezone America/Juneau (UTC-9.0)
Stats Elevation 21 ft / 6 m (AMSL)
Location 58.354964° -134.576278°
Runways 1
Magnetic Variation 19.150° E

METAR

PAJN 122253Z 10009KT 10SM FEW004 BKN049 BKN095 OVC200 07/07 A3023

Decode

TAF

PAJN 122327Z 1300/1324 08007KT P6SM BCFG SCT004 BKN050 OVC060 FM130900 10010KT P6SM -RA OVC040 FM132100 11015KT P6SM -RA SCT025 OVC035

Decode

Departure Runways

ID Width Length Bearing (true) Bearing (mag) Surface Threshold Offset Overrun Length
08 150 ft / 46 m 8,430 ft / 2,570 m 104.87° 85.72° Asphalt 0 ft / 0 m 450 ft / 137 m
26 150 ft / 46 m 8,430 ft / 2,570 m 284.90° 265.75° Asphalt 0 ft / 0 m 225 ft / 69 m

PAGS

Details ICAO PAGS (GST)
Name GUSTAVUS
Region USA (Alaska)
Timezone America/Juneau (UTC-9.0)
Stats Elevation 34 ft / 10 m (AMSL)
Location 58.424690° -135.708964°
Runways 2
Magnetic Variation 19.053° E

METAR

PAGS 122256Z AUTO 00000KT 10SM BKN080 06/05 A3023 RMK AO2 SLP237 T00610050

Decode

TAF

TAF PAGS 122331Z 1300/1324 11008KT P6SM SCT004 OVC050 FM130600 VRB04KT P6SM -RA BKN035 OVC050 FM131200 32007KT P6SM -RA SCT025 BKN040 FM131900 13004KT P6SM -RA SCT015 BKN025 AMD LTD TO CLD VIS AND WIND

Decode

Destination Runways

ID Width Length Bearing (true) Bearing (mag) Surface Threshold Offset Overrun Length
02 60 ft / 18 m 3,003 ft / 915 m 40.96° 21.91° Asphalt 0 ft / 0 m 0 ft / 0 m
11 150 ft / 46 m 6,704 ft / 2,044 m 135.06° 116.01° Asphalt 0 ft / 0 m 0 ft / 0 m
20 60 ft / 18 m 3,003 ft / 915 m 220.97° 201.92° Asphalt 0 ft / 0 m 0 ft / 0 m
29 150 ft / 46 m 6,704 ft / 2,044 m 315.08° 296.03° Asphalt 0 ft / 0 m 0 ft / 0 m

Popular Alternatives